Regional Weather Roundup
Issued by NWS

Home | Current Version | Previous Version | Graphics & Text | Print | Product List | Glossary On
Versions: 1 2 3 4 5 6 7 8 9 10 11 12 13 14 15 16 17 18 19 20 21 22 23 24 25 26 27 28 29 30 31 32 33 34 35 36 37 38 39 40 41 42 43 44 45 46 47 48 49 50
000
ASUS45 KBOU 231407
RWRCO

WEATHER ROUNDUP FOR COLORADO
NATIONAL WEATHER SERVICE DENVER/BOULDER CO
800 AM MDT SUN APR 23 2017

NOTE: "FAIR" INDICATES FEW OR NO CLOUDS BELOW 12000 FEET WITH NO
SIGNIFICANT WEATHER AND/OR OBSTRUCTIONS TO VISIBILITY.

COZ001>005-013-030-031-231500-
...NORTHWEST COLORADO...

CITY           SKY/WX    TMP DP  RH WIND       PRES   REMARKS
CRAIG          FAIR      41  29  62 MISG      30.05R
HAYDEN         FAIR      37  23  56 E10       30.06S
MEEKER         FAIR      34  27  75 CALM      30.05R
MOUNT WERNER   NOT AVBL
STEAMBOAT SPGS FAIR      32  25  73 CALM      30.08S
WALDEN           N/A     37  21  52 S8        30.10S
$$

COZ006>008-011-231500-
...WEST CENTRAL VALLEYS...

CITY           SKY/WX    TMP DP  RH WIND       PRES   REMARKS
GRAND JUNCTION FAIR      50  24  36 SE18      30.03R
MONTROSE       FAIR      43  23  45 S7        30.09F
EAGLE          SUNNY     34  25  69 CALM      30.15F
RIFLE          FAIR      41  27  57 CALM      30.08R
DELTA          FAIR      45  24  43 E3        30.08S
NUCLA          FAIR      41  19  42 E3        30.12R
$$

COZ017>023-064>068-231500-
...SOUTHWEST COLORADO...

CITY           SKY/WX    TMP DP  RH WIND       PRES   REMARKS
DURANGO        FAIR      36  21  54 SE3       30.19S
CORTEZ         FAIR      47  27  45 CALM      30.12R
PAGOSA SPRINGS FAIR      37  19  49 CALM      30.24S
TELLURIDE      FAIR      45  14  28 CALM      30.22R
WOLF CREEK PAS FAIR      27  21  80 SW14      30.36R WCI  15
$$

COZ009-010-012-014-032>034-037-058>063-231500-
...CENTRAL COLORADO...

CITY           SKY/WX    TMP DP  RH WIND       PRES   REMARKS
ASPEN          FAIR      38  20  48 CALM      30.09F
BUENA VISTA    FAIR      32  25  76 NW5       30.18R WCI  27
COPPER MTN     FAIR      37  -6  15 S14G20    30.25S
BERTHOUD PASS  FAIR      30  19  64 MISG      30.24R
COTTONWOOD PAS FAIR      34  23  64 SW5       30.19S WCI  30
GUNNISON       FAIR      29  21  72 NE3       30.23S
KREMMLING      FAIR      34  28  80 CALM      30.15F
LEADVILLE      FAIR      28  17  63 CALM      30.18S
MONARCH PASS   FAIR      27  19  74 SW25      30.38R WCI  11
SALIDA         FAIR      37  28  67 N12       30.23S
SUNLIGHT       FAIR      32  16  51 SW10G21   30.24R WCI  24
WILKERSON PASS FAIR      30  18  59 W9G18     30.24S WCI  22
$$

COZ069>075-231500-
...SAN LUIS VALLEY/SANGRE DE CRISTO MOUNTAINS...

CITY           SKY/WX    TMP DP  RH WIND       PRES   REMARKS
ALAMOSA        FAIR      32  25  75 CALM      30.24R
LA VETA PASS   FAIR      28  27  93 SW41G51   30.29S WCI  11
SAGUACHE       FAIR      34  21  60 NW3       30.26R
$$

COZ035-036-038>040-231500-
...NORTHERN COLORADO FRONT RANGE...

CITY           SKY/WX    TMP DP  RH WIND       PRES   REMARKS
DENVER INTL AP PTSUNNY   45  32  60 SW12      29.99F
DMNS CITY PARK   N/A     45  32  60 W1G8      30.00F
AURORA         PTSUNNY   46  29  53 SW10      30.01F
FRONT RANGE AP NOT AVBL
ERIE MUNI ARPT FAIR      41  36  82 CALM      30.00F
BOULDER MUN AP FAIR      39  32  75 CALM      29.99F
CENTENNIAL     PTSUNNY   45  31  58 S6        30.01F
BROOMFIELD     PTSUNNY   43  32  65 CALM      30.01S
FORT COLLINS   FAIR      39  36  89 N3        30.00F
LONGMONT       FAIR      42  36  79 CALM      30.02F HAZE
$$

COZ041-046-047-076>085-087-088-231500-
...PIKES PEAK/PALMER DIVIDE AND SOUTHERN FOOTHILLS...

CITY           SKY/WX    TMP DP  RH WIND       PRES   REMARKS
COLO. SPRINGS  PTSUNNY   40  32  73 CALM      30.08F
A. F. ACADEMY  FAIR      35  33  91 N6        30.07F WCI  30
SCHRIEVER AFB  FAIR      38  33  81 N5        30.08F
ELLICOTT       FAIR     N/A N/A N/A CALM      30.06F
FALCON         FAIR      39  30  69 CALM      30.09F
FORT CARSON    FAIR      38  32  79 N6        30.07F
LIMON          FAIR      40  35  83 SE10      30.07S
MONUMENT HILL  FAIR      41  28  60 S14       30.07F
TRINIDAD       FAIR      47  32  56 W14       30.09F
$$

COZ042>045-048>051-090-091-231500-
...NORTHEAST COLORADO...

CITY           SKY/WX    TMP DP  RH WIND       PRES   REMARKS
GREELEY ARPT   FAIR      39  35  86 CALM      30.01F
AKRON          FAIR      43  33  68 S13       30.02F
BURLINGTON     NOT AVBL
WRAY           NOT AVBL
STERLING       FAIR      45  37  76 S14       30.00F
HOLYOKE        FAIR      46  36  66 S15       30.06F
FORT MORGAN    FAIR      43  35  71 SE6       30.01F
$$

COZ086-089-092>099-231500-
...SOUTHEAST COLORADO...

CITY           SKY/WX    TMP DP  RH WIND       PRES   REMARKS
PUEBLO         FAIR      40  35  83 CALM      30.07S
LA JUNTA       FAIR      46  35  65 S6        30.08F
LAMAR          FAIR      50  34  54 S21G30    30.08F
SPRINGFIELD      N/A     46  33  60 S25       30.13F
$$



USA.gov is the U.S. government's official web portal to all federal, state and local government web resources and services.